Time,TemperatureF,DewpointF,PressureIn,WindDirection,WindDirectionDegrees,WindSpeedMPH,WindSpeedGustMPH,Humidity,HourlyPrecipIn,Conditions,Clouds,dailyrainin,SolarRadiationWatts/m^2,SoftwareType,DateUTC
2013-07-23 00:00:00,78.1,73.9,29.87,NNE,32,0.0,10.0,87,0.00,,SCT,0.00,0.00,VWS V14.01,2013-07-23 04:00:00,
2013-07-23 01:00:00,77.5,73.7,29.85,North,360,0.0,6.0,88,0.00,,SCT,0.00,0.00,VWS V14.01,2013-07-23 05:00:00,
2013-07-23 02:00:00,75.5,73.3,29.84,SSW,202,0.0,5.0,93,0.00,,SCT,0.00,0.00,VWS V14.01,2013-07-23 06:00:00,
2013-07-23 03:00:00,74.9,73.1,29.83,East,86,0.0,3.0,94,0.00,,SCT,0.00,0.00,VWS V14.01,2013-07-23 07:00:00,
2013-07-23 04:00:00,74.7,72.9,29.81,NW,319,0.0,4.0,94,0.00,,SCT,0.00,0.00,VWS V14.01,2013-07-23 08:00:00,
2013-07-23 05:00:00,73.8,72.6,29.81,East,101,1.0,4.0,96,0.00,,SCT,0.00,0.00,VWS V14.01,2013-07-23 09:00:00,
2013-07-23 06:00:00,76.0,72.2,29.82,NNE,19,0.0,5.0,88,0.00,,SCT,0.00,0.00,VWS V14.01,2013-07-23 10:00:00,
2013-07-23 07:00:00,76.9,71.0,29.82,NE,49,0.0,7.0,82,0.00,,SCT,0.00,14.00,VWS V14.01,2013-07-23 11:00:00,
2013-07-23 08:00:00,77.4,71.8,29.84,NNE,15,2.0,4.0,83,0.00,,SCT,0.00,33.00,VWS V14.01,2013-07-23 12:00:00,
2013-07-23 09:00:00,81.2,70.5,29.83,NE,55,2.0,11.0,70,0.00,,SCT,0.00,221.00,VWS V14.01,2013-07-23 13:00:00,
2013-07-23 09:07:00,82.0,70.4,29.84,NE,55,6.0,8.0,68,0.00,,SCT,0.00,448.00,VWS V14.01,2013-07-23 13:07:00,
2013-07-23 09:12:00,81.8,70.2,29.84,NNE,30,6.0,9.0,68,0.00,,SCT,0.00,174.00,VWS V14.01,2013-07-23 13:12:00,
2013-07-23 09:17:00,81.9,70.3,29.84,NE,51,4.0,9.0,68,0.00,,SCT,0.00,132.00,VWS V14.01,2013-07-23 13:17:00,
2013-07-23 09:22:00,81.5,70.8,29.83,ENE,61,5.0,9.0,70,0.00,,SCT,0.00,84.00,VWS V14.01,2013-07-23 13:22:00,
2013-07-23 09:27:00,81.4,71.1,29.83,ENE,60,11.0,11.0,71,0.00,,SCT,0.00,476.00,VWS V14.01,2013-07-23 13:27:00,
2013-07-23 09:32:00,82.1,70.9,29.83,NE,48,6.0,12.0,69,0.00,,SCT,0.00,478.00,VWS V14.01,2013-07-23 13:32:00,
2013-07-23 09:37:00,82.5,71.3,29.83,East,84,5.0,12.0,69,0.00,,SCT,0.00,457.00,VWS V14.01,2013-07-23 13:37:00,
2013-07-23 09:42:00,82.8,71.2,29.83,NE,46,6.0,12.0,68,0.00,,SCT,0.00,485.00,VWS V14.01,2013-07-23 13:42:00,
2013-07-23 09:47:00,82.9,70.4,29.83,East,100,8.0,12.0,66,0.00,,SCT,0.00,410.00,VWS V14.01,2013-07-23 13:47:00,
2013-07-23 09:52:00,83.1,71.0,29.83,NE,53,4.0,12.0,67,0.00,,SCT,0.00,506.00,VWS V14.01,2013-07-23 13:52:00,
2013-07-23 09:57:00,83.4,70.9,29.83,ENE,68,5.0,12.0,66,0.00,,SCT,0.00,517.00,VWS V14.01,2013-07-23 13:57:00,
2013-07-23 10:00:00,83.2,70.2,29.83,NE,55,13.0,14.0,65,0.00,,SCT,0.00,506.00,VWS V14.01,2013-07-23 14:00:00,
2013-07-23 10:02:00,83.7,70.7,29.83,ENE,78,6.0,12.0,65,0.00,,SCT,0.00,531.00,VWS V14.01,2013-07-23 14:02:00,
2013-07-23 10:07:00,83.8,70.3,29.83,East,89,11.0,14.0,64,0.00,,SCT,0.00,540.00,VWS V14.01,2013-07-23 14:07:00,
2013-07-23 10:12:00,83.6,69.7,29.83,East,96,8.0,14.0,63,0.00,,SCT,0.00,570.00,VWS V14.01,2013-07-23 14:12:00,
2013-07-23 10:17:00,83.7,69.8,29.83,ENE,63,6.0,14.0,63,0.00,,SCT,0.00,570.00,VWS V14.01,2013-07-23 14:17:00,
2013-07-23 10:22:00,84.2,70.2,29.83,ENE,57,6.0,14.0,63,0.00,,SCT,0.00,585.00,VWS V14.01,2013-07-23 14:22:00,
2013-07-23 10:27:00,84.1,69.2,29.83,East,90,5.0,14.0,61,0.00,,SCT,0.00,594.00,VWS V14.01,2013-07-23 14:27:00,
2013-07-23 10:32:00,84.2,69.8,29.83,NE,55,5.0,14.0,62,0.00,,SCT,0.00,612.00,VWS V14.01,2013-07-23 14:32:00,
2013-07-23 10:37:00,84.3,69.9,29.83,East,86,6.0,14.0,62,0.00,,SCT,0.00,638.00,VWS V14.01,2013-07-23 14:37:00,
2013-07-23 10:42:00,84.4,70.0,29.83,East,98,7.0,14.0,62,0.00,,SCT,0.00,744.00,VWS V14.01,2013-07-23 14:42:00,
2013-07-23 10:47:00,84.3,69.4,29.83,East,88,3.0,14.0,61,0.00,,SCT,0.00,343.00,VWS V14.01,2013-07-23 14:47:00,
2013-07-23 10:52:00,83.6,69.7,29.83,East,89,4.0,14.0,63,0.00,,SCT,0.00,262.00,VWS V14.01,2013-07-23 14:52:00,
2013-07-23 10:57:00,83.3,69.4,29.83,ENE,76,5.0,10.0,63,0.01,,SCT,0.01,250.00,VWS V14.01,2013-07-23 14:57:00,
2013-07-23 11:00:00,83.6,70.1,29.83,ENE,67,6.0,14.0,64,0.00,,SCT,0.00,262.00,VWS V14.01,2013-07-23 15:00:00,
2013-07-23 11:02:00,83.1,70.6,29.82,East,93,5.0,10.0,66,0.01,,SCT,0.01,276.00,VWS V14.01,2013-07-23 15:02:00,
2013-07-23 11:07:00,83.2,70.2,29.82,East,84,3.0,10.0,65,0.01,,SCT,0.01,269.00,VWS V14.01,2013-07-23 15:07:00,
2013-07-23 11:12:00,83.9,71.8,29.82,ENE,57,7.0,10.0,67,0.01,,SCT,0.01,768.00,VWS V14.01,2013-07-23 15:12:00,
2013-07-23 11:17:00,83.9,70.4,29.83,East,82,10.0,15.0,64,0.01,,SCT,0.01,714.00,VWS V14.01,2013-07-23 15:17:00,
2013-07-23 11:22:00,84.5,70.5,29.83,East,88,11.0,15.0,63,0.01,,SCT,0.01,703.00,VWS V14.01,2013-07-23 15:22:00,
2013-07-23 11:27:00,84.8,71.3,29.83,ENE,76,7.0,15.0,64,0.01,,SCT,0.01,714.00,VWS V14.01,2013-07-23 15:27:00,
2013-07-23 11:32:00,84.5,71.0,29.83,ENE,64,6.0,15.0,64,0.01,,SCT,0.01,719.00,VWS V14.01,2013-07-23 15:32:00,
2013-07-23 11:37:00,84.6,71.1,29.83,ENE,69,4.0,15.0,64,0.01,,SCT,0.01,758.00,VWS V14.01,2013-07-23 15:37:00,
2013-07-23 11:42:00,84.9,70.4,29.83,NE,48,10.0,15.0,62,0.01,,SCT,0.01,619.00,VWS V14.01,2013-07-23 15:42:00,
2013-07-23 11:47:00,85.4,71.4,29.83,NE,42,7.0,15.0,63,0.01,,SCT,0.01,664.00,VWS V14.01,2013-07-23 15:47:00,
2013-07-23 11:52:00,85.5,70.0,29.83,NE,51,11.0,15.0,60,0.01,,SCT,0.01,844.00,VWS V14.01,2013-07-23 15:52:00,
2013-07-23 11:57:00,86.2,71.7,29.83,East,85,13.0,14.0,62,0.01,,SCT,0.01,828.00,VWS V14.01,2013-07-23 15:57:00,
2013-07-23 12:00:00,85.5,70.0,29.83,ENE,61,10.0,15.0,60,0.01,,SCT,0.01,838.00,VWS V14.01,2013-07-23 16:00:00,
2013-07-23 12:02:00,85.5,70.0,29.83,NE,45,7.0,14.0,60,0.01,,SCT,0.01,838.00,VWS V14.01,2013-07-23 16:02:00,
2013-07-23 12:07:00,86.1,71.6,29.83,ENE,65,11.0,14.0,62,0.01,,SCT,0.01,905.00,VWS V14.01,2013-07-23 16:07:00,
2013-07-23 12:12:00,85.4,70.4,29.83,ENE,71,8.0,14.0,61,0.01,,SCT,0.01,162.00,VWS V14.01,2013-07-23 16:12:00,
2013-07-23 12:17:00,85.4,70.4,29.83,East,90,7.0,14.0,61,0.01,,SCT,0.01,162.00,VWS V14.01,2013-07-23 16:17:00,
2013-07-23 12:22:00,85.6,70.6,29.83,ENE,61,3.0,14.0,61,0.01,,SCT,0.01,383.00,VWS V14.01,2013-07-23 16:22:00,
2013-07-23 12:27:00,85.5,70.5,29.83,East,84,7.0,14.0,61,0.01,,SCT,0.01,388.00,VWS V14.01,2013-07-23 16:27:00,
2013-07-23 12:32:00,85.2,71.2,29.83,NE,38,9.0,14.0,63,0.01,,SCT,0.01,262.00,VWS V14.01,2013-07-23 16:32:00,
2013-07-23 13:00:00,85.3,70.8,29.83,NE,42,8.0,14.0,62,0.01,,SCT,0.01,148.00,VWS V14.01,2013-07-23 17:00:00,
2013-07-23 14:00:00,86.2,72.1,29.82,NE,38,7.0,14.0,63,0.00,,SCT,0.01,410.00,VWS V14.01,2013-07-23 18:00:00,
2013-07-23 15:00:00,88.5,71.8,29.81,ENE,61,3.0,15.0,58,0.00,,SCT,0.01,856.00,VWS V14.01,2013-07-23 19:00:00,
2013-07-23 16:00:00,89.0,70.2,29.79,ENE,72,5.0,14.0,54,0.00,,SCT,0.01,663.00,VWS V14.01,2013-07-23 20:00:00,
2013-07-23 17:00:00,89.3,69.4,29.77,East,84,8.0,14.0,52,0.00,,SCT,0.01,504.00,VWS V14.01,2013-07-23 21:00:00,
2013-07-23 18:00:00,89.1,70.3,29.75,ENE,68,3.0,11.0,54,0.00,,SCT,0.01,109.00,VWS V14.01,2013-07-23 22:00:00,
2013-07-23 18:13:00,89.3,71.0,29.75,NE,51,2.0,8.0,55,0.00,,SCT,0.01,290.00,VWS V14.01,2013-07-23 22:13:00,
2013-07-23 18:18:00,89.3,69.9,29.75,NNE,30,5.0,8.0,53,0.00,,SCT,0.01,269.00,VWS V14.01,2013-07-23 22:18:00,
2013-07-23 18:23:00,89.2,69.8,29.75,NE,55,1.0,8.0,53,0.00,,SCT,0.01,265.00,VWS V14.01,2013-07-23 22:23:00,
2013-07-23 18:28:00,89.1,70.3,29.75,NE,39,5.0,8.0,54,0.00,,SCT,0.01,248.00,VWS V14.01,2013-07-23 22:28:00,
2013-07-23 18:33:00,89.2,69.8,29.76,East,79,3.0,8.0,53,0.00,,SCT,0.01,255.00,VWS V14.01,2013-07-23 22:33:00,
2013-07-23 18:38:00,88.9,70.7,29.76,ENE,78,4.0,8.0,55,0.00,,SCT,0.01,84.00,VWS V14.01,2013-07-23 22:38:00,
2013-07-23 18:43:00,88.4,70.2,29.76,NNE,29,3.0,8.0,55,0.00,,SCT,0.01,74.00,VWS V14.01,2013-07-23 22:43:00,
2013-07-23 18:48:00,88.5,71.3,29.76,ENE,63,3.0,8.0,57,0.00,,SCT,0.01,190.00,VWS V14.01,2013-07-23 22:48:00,
2013-07-23 18:53:00,88.4,71.2,29.76,NE,46,4.0,5.0,57,0.00,,SCT,0.01,53.00,VWS V14.01,2013-07-23 22:53:00,
2013-07-23 18:58:00,88.8,71.1,29.76,ENE,58,3.0,5.0,56,0.00,,SCT,0.01,160.00,VWS V14.01,2013-07-23 22:58:00,
2013-07-23 19:00:00,88.4,71.2,29.76,NNE,17,3.0,8.0,57,0.00,,SCT,0.01,158.00,VWS V14.01,2013-07-23 23:00:00,
2013-07-23 19:03:00,88.0,71.4,29.76,North,10,3.0,5.0,58,0.00,,SCT,0.01,162.00,VWS V14.01,2013-07-23 23:03:00,
2013-07-23 19:08:00,88.3,71.7,29.76,NNE,13,0.0,5.0,58,0.00,,SCT,0.01,149.00,VWS V14.01,2013-07-23 23:08:00,
2013-07-23 19:13:00,87.7,72.1,29.76,NNE,13,0.0,5.0,60,0.00,,SCT,0.01,102.00,VWS V14.01,2013-07-23 23:13:00,
2013-07-23 19:18:00,87.5,70.9,29.77,NE,35,4.0,5.0,58,0.00,,SCT,0.01,116.00,VWS V14.01,2013-07-23 23:18:00,
2013-07-23 19:23:00,87.6,71.0,29.77,ENE,69,2.0,6.0,58,0.00,,SCT,0.01,81.00,VWS V14.01,2013-07-23 23:23:00,
2013-07-23 19:28:00,87.5,70.9,29.77,NE,55,5.0,6.0,58,0.00,,SCT,0.01,35.00,VWS V14.01,2013-07-23 23:28:00,
2013-07-23 19:33:00,87.0,72.9,29.77,NE,55,0.0,6.0,63,0.00,,SCT,0.01,32.00,VWS V14.01,2013-07-23 23:33:00,
2013-07-23 19:39:00,85.6,73.8,29.77,NE,55,0.0,6.0,68,0.00,,SCT,0.01,32.00,VWS V14.01,2013-07-23 23:39:00,
2013-07-23 19:44:00,84.9,74.4,29.77,NNE,17,1.0,6.0,71,0.00,,SCT,0.01,25.00,VWS V14.01,2013-07-23 23:44:00,
2013-07-23 19:49:00,84.1,74.5,29.76,NNE,16,2.0,6.0,73,0.00,,SCT,0.01,26.00,VWS V14.01,2013-07-23 23:49:00,
2013-07-23 19:54:00,83.1,74.0,29.76,NNE,16,0.0,1.0,74,0.00,,SCT,0.01,12.00,VWS V14.01,2013-07-23 23:54:00,
2013-07-23 19:59:00,83.1,71.9,29.77,NNE,13,0.0,2.0,69,0.00,,SCT,0.01,7.00,VWS V14.01,2013-07-23 23:59:00,
2013-07-23 20:00:00,83.3,74.2,29.76,NNE,16,0.0,6.0,74,0.00,,SCT,0.01,14.00,VWS V14.01,2013-07-24 00:00:00,
2013-07-23 20:04:00,84.1,72.4,29.77,NNE,13,0.0,2.0,68,0.00,,SCT,0.01,5.00,VWS V14.01,2013-07-24 00:04:00,
2013-07-23 20:09:00,84.0,72.7,29.77,NNE,13,0.0,2.0,69,0.00,,SCT,0.01,0.00,VWS V14.01,2013-07-24 00:09:00,
2013-07-23 20:14:00,83.8,73.0,29.77,NNE,13,0.0,2.0,70,0.00,,SCT,0.01,0.00,VWS V14.01,2013-07-24 00:14:00,
2013-07-23 20:19:00,83.4,73.0,29.77,NNE,13,0.0,2.0,71,0.00,,SCT,0.01,0.00,VWS V14.01,2013-07-24 00:19:00,
2013-07-23 20:24:00,82.9,72.9,29.78,NNE,13,1.0,3.0,72,0.00,,SCT,0.01,0.00,VWS V14.01,2013-07-24 00:24:00,
2013-07-23 20:30:00,82.4,72.5,29.78,North,5,2.0,4.0,72,0.00,,SCT,0.01,0.00,VWS V14.01,2013-07-24 00:30:00,
2013-07-23 20:35:00,81.7,72.6,29.78,North,360,1.0,4.0,74,0.00,,SCT,0.01,0.00,VWS V14.01,2013-07-24 00:35:00,
2013-07-23 20:40:00,81.4,72.3,29.78,North,360,0.0,4.0,74,0.00,,SCT,0.01,0.00,VWS V14.01,2013-07-24 00:40:00,
2013-07-23 20:45:00,81.6,72.9,29.79,North,360,0.0,4.0,75,0.00,,SCT,0.01,0.00,VWS V14.01,2013-07-24 00:45:00,
2013-07-23 20:50:00,81.7,73.4,29.78,North,360,0.0,4.0,76,0.00,,SCT,0.01,0.00,VWS V14.01,2013-07-24 00:50:00,
2013-07-23 20:55:00,81.1,73.2,29.79,North,360,0.0,0.0,77,0.00,,SCT,0.01,0.00,VWS V14.01,2013-07-24 00:55:00,
2013-07-23 21:00:00,81.3,73.0,29.79,North,360,0.0,4.0,76,0.00,,SCT,0.01,0.00,VWS V14.01,2013-07-24 01:00:00,
2013-07-23 22:00:00,79.2,74.3,29.81,North,360,0.0,3.0,85,0.00,,SCT,0.01,0.00,VWS V14.01,2013-07-24 02:00:00,
2013-07-23 23:00:00,79.1,71.3,29.82,North,360,0.0,3.0,77,0.00,,SCT,0.01,0.00,VWS V14.01,2013-07-24 03:00:00,